Location: Champs
(48.8539°N, 2.6040°E)
Time: 09:48:57
(UTC+00:00)

USA 308 - Pass Details

Date: 05 June 2022
Orbit: 549 x 558 km, 54.0° (Epoch: 14 June)

Event Time Altitude Azimuth Distance (km) Brightness Sun altitude
Rises 22:13:14 0° 252° (WSW) 2,722 6.4 -15.4°
Reaches altitude 10° 22:15:29 10° 256° (WSW) 1,831 5.6 -15.6°
Maximum altitude 22:19:37 65° 338° (NNW) 615 3.3 -15.8°
Drops below altitude 10° 22:23:46 10° 61° (ENE) 1,840 5.6 -16.1°
Sets 22:26:03 0° 65° (ENE) 2,743 6.5 -16.2°
